Location: Ash Swamp
(41.5170°N, 74.6157°W)
Time: 17:21:52
(UTC+00:00)

USA 215 - Pass Details

Date: 14 July 2020
Orbit: 1102 x 1106 km, 123.0° (Epoch: 31 July)

Event Time Altitude Azimuth Distance (km) Brightness Sun altitude
Rises 03:31:41 0° 47° (NE) 3,924 6.4 -23.3°
Reaches altitude 10° 03:34:11 10° 49° (NE) 2,964 5.7 -23.5°
Maximum altitude 03:40:44 82° 137° (SE) 1,115 3.1 -24.0°
Enters shadow 03:46:27 14° 225° (SW) 2,634 5.0 -24.3°
